Regional Weather Roundup
Issued by NWS Jackson, KY

Home | Current Version | Previous Version | Graphics & Text | Print | Product List | Glossary On
Versions: 1 2 3 4 5 6 7 8 9 10 11 12 13 14 15 16 17 18 19 20 21 22 23 24 25 26 27 28 29
000
ASUS43 KJKL 290910
RWRJKL

EAST KENTUCKY HOURLY WEATHER ROUNDUP
NATIONAL WEATHER SERVICE JACKSON KY
500 AM EDT FRI APR 29 2016

NOTE: "FAIR" INDICATES FEW OR NO CLOUDS BELOW 12,000 FEET WITH
NO SIGNIFICANT WEATHER AND/OR OBSTRUCTIONS TO VISIBILITY.

* THESE REPORTS ARE NOT UNDER NWS QUALITY CONTROL AND MAY NOT
  REPORT WEATHER SUCH AS PRECIPITATION AND FOG.

KYZ079-080-083-085-087-088-110-112-115-119-120-291000
...EASTERN KENTUCKY...

CITY           SKY/WX    TMP DP  RH WIND       PRES   REMARKS
JACKSON        CLEAR     60  48  64 W5        30.01R
LONDON         CLEAR     53  51  93 CALM      30.02R
SOMERSET*      CLEAR     52  52 100 CALM      30.03S FOG
MONTICELLO*    PTCLDY    52  51  97 CALM      30.04R
WILLIAMSBURG*  SUNNY     54  54 100 CALM      30.03R
MIDDLESBORO*   CLEAR     55  53  92 CALM      30.02S
HARLAN APT*    CLOUDY    54  54 100 CALM      30.03S VSB<1/4
HAZARD APT*    SUNNY     57  55  94 CALM      30.01R
BLACK MTN*       N/A     52  46  82 NW2         N/A
PIKE CO APT*     N/A     60  52  76 CALM      30.01R
BIG SANDY APT* SUNNY     58  53  83 SW3       30.00R
MOREHEAD APT*  SUNNY     54  50  87 CALM      30.00S
$$

KYZ035-036-041-042-044-050-067-078-099-291000
...CENTRAL KENTUCKY...

CITY           SKY/WX    TMP DP  RH WIND       PRES   REMARKS
MT STERLING*   CLEAR     54  50  87 W5        30.01R
FLEMING/MASON* PTCLDY    54  51  89 W3        30.00R
DANVILLE*      CLEAR     54  50  87 CALM      30.02S
RICHMOND*      CLEAR     57  48  72 W3        30.00S
LEXINGTON      CLEAR     56  49  77 CALM      30.00R
FRANKFORT      CLEAR     52  48  86 CALM      29.98R
LOUISVILLE     MOCLDY    59  51  75 NW7       30.00R
LEBANON*         N/A     55  50  82 CALM      30.01R
BOWLING GREEN  CLOUDY    55  52  89 CALM      30.01R
$$

KYZ091>093-OHZ055-061-077-WVZ005-015-034-035-042-291000
...SOUTHERN OHIO/WEST VIRGINIA...

CITY           SKY/WX    TMP DP  RH WIND       PRES   REMARKS
COVINGTON      CLOUDY    55  53  93 NW3       29.98R FOG
COLUMBUS       CLOUDY    52  48  87 NW5       29.96R FOG
DAYTON         CLOUDY    50  49  96 VRB5      29.99R FOG
WILMINGTON     FOG       51  51 100 W3        29.97S VSB 1/2
HUNTINGTON     FOG       59  58  96 S3        29.97R VSB 1/2
CHARLESTON     CLOUDY    60  58  92 SW5       29.97R
PINEVILLE*     CLOUDY    53  50  91 MISG      30.05R FOG
BECKLEY          N/A     56  51  84 W7        30.00R
$$

VAZ002-007-008-TNZ017-027-036-066-071-291000
...SOUTHWEST VIRGINIA/EAST TENNESSEE...

CITY           SKY/WX    TMP DP  RH WIND       PRES   REMARKS
WISE*            N/A     54  45  71 CALM      30.05S
BRISTOL        CLEAR     54  52  93 N3        30.02R
MORRISTOWN*    SUNNY     57  54  88 S5        30.01S
SEVIERVILLE*   SUNNY     55  54  94 CALM      30.02S
KNOXVILLE      CLEAR     60  55  83 CALM      30.01
OAK RIDGE      CLEAR     65  50  58 CALM      30.02R
CROSSVILLE     CLEAR     63  48  58 N5        30.04S
NASHVILLE      CLOUDY    56  53  90 S5        30.00R
$$

...KEY TO REMARKS...
VSB - VISIBILITY IN MILES
WCI - WIND CHILL INDEX
HX  - HEAT INDEX

$$




USA.gov is the U.S. government's official web portal to all federal, state and local government web resources and services.